History for Miami, FL

Tuesday, December 4, 2012 — View Current Conditions

Jump to Data:

Date:
Airport Code:
Recently Viewed Airport Codes: KMIA
Daily Summary
  Actual Average Record
Temperature
Mean Temperature 72°F 72°F  
Max Temperature 80°F 79°F 88°F (1900)
Min Temperature 64°F 65°F 42°F (1939)
Degree Days
Heating Degree Days 0 0  
Month to date heating degree days 0 0  
Since 1 July heating degree days 1 3  
Cooling Degree Days 7 8  
Month to date cooling degree days 37 32  
Year to date cooling degree days 4477 4404  
Growing Degree Days 22 (Base 50)    
Moisture
Dew Point 58°F    
Average Humidity 61    
Maximum Humidity 78    
Minimum Humidity 44    
Precipitation
Precipitation T in 0.07 in 2.29 in (1997)
Month to date precipitation 0.13 0.29  
Year to date precipitation 86.56 60.15  
Snow
Snow 0.00 in in in ()
Month to date snowfall 0.0  
Since 1 July snowfall 0.0  
Snow Depth 0.00 in    
Sea Level Pressure
Sea Level Pressure 30.18 in    
Wind
Wind Speed 9 mph (ENE)    
Max Wind Speed 22 mph    
Max Gust Speed 26 mph    
Visibility 10 miles    
Events      
T = Trace of Precipitation, MM = Missing Value Source: NWS Daily Summary

Show full METARS

(help) - Comma Delimited File

Hourly Observations

Time(EST) Temperature Dew Point Humidity Sea Level Pressure Visibility Wind Direction Wind Speed Gust Speed Precipitation Events Conditions
12:53 AM 71.6°F 50.0°F 46% 30.19 in 10.0 miles NE 4.6 mph - N/A   Scattered Clouds
1:53 AM 66.0°F 51.1°F 59% 30.19 in 10.0 miles Calm Calm - N/A   Partly Cloudy
2:53 AM 66.9°F 53.1°F 61% 30.18 in 10.0 miles Calm Calm - N/A   Scattered Clouds
3:53 AM 66.9°F 54.0°F 63% 30.17 in 10.0 miles NNW 4.6 mph - N/A   Scattered Clouds
4:53 AM 69.1°F 59.0°F 70% 30.17 in 10.0 miles North 3.5 mph - 0.00 in   Overcast
5:53 AM 66.9°F 59.0°F 76% 30.18 in 10.0 miles NNW 3.5 mph - N/A   Scattered Clouds
6:53 AM 69.1°F 61.0°F 75% 30.19 in 10.0 miles North 4.6 mph - N/A   Mostly Cloudy
7:53 AM 72.0°F 63.0°F 73% 30.20 in 10.0 miles Calm Calm - N/A   Mostly Cloudy
8:53 AM 77.0°F 57.0°F 50% 30.22 in 10.0 miles East 12.7 mph - N/A   Scattered Clouds
9:53 AM 77.0°F 61.0°F 58% 30.23 in 10.0 miles East 15.0 mph - N/A   Mostly Cloudy
10:53 AM 75.9°F 61.0°F 60% 30.23 in 10.0 miles East 18.4 mph - N/A   Mostly Cloudy
11:53 AM 75.9°F 61.0°F 60% 30.22 in 10.0 miles East 20.7 mph - N/A   Mostly Cloudy
12:53 PM 75.9°F 57.9°F 54% 30.19 in 10.0 miles East 17.3 mph 24.2 mph N/A   Mostly Cloudy
1:53 PM 77.0°F 57.9°F 52% 30.17 in 10.0 miles East 16.1 mph 21.9 mph N/A   Mostly Cloudy
2:53 PM 77.0°F 57.9°F 52% 30.15 in 10.0 miles ENE 13.8 mph - N/A   Mostly Cloudy
3:53 PM 75.9°F 57.9°F 54% 30.16 in 10.0 miles East 12.7 mph 20.7 mph N/A   Mostly Cloudy
4:53 PM 75.0°F 57.9°F 55% 30.16 in 10.0 miles East 16.1 mph 19.6 mph N/A   Mostly Cloudy
5:53 PM 73.9°F 57.9°F 57% 30.17 in 10.0 miles East 9.2 mph - N/A   Mostly Cloudy
6:53 PM 75.0°F 57.9°F 55% 30.18 in 10.0 miles East 9.2 mph - N/A   Overcast
7:53 PM 75.0°F 57.0°F 53% 30.18 in 10.0 miles ENE 11.5 mph - N/A   Overcast
8:53 PM 75.0°F 57.9°F 55% 30.18 in 10.0 miles East 10.4 mph - N/A   Mostly Cloudy
9:53 PM 72.0°F 57.9°F 61% 30.17 in 10.0 miles East 6.9 mph - N/A   Scattered Clouds
10:53 PM 71.1°F 60.1°F 68% 30.17 in 10.0 miles East 6.9 mph - N/A   Scattered Clouds
11:53 PM 71.1°F 60.1°F 68% 30.16 in 10.0 miles East 6.9 mph - N/A   Scattered Clouds